FW7205 Weather Reports


time (UTC)temp
C
wind
direction
speed
KPH
gust
KPH
rain 1hr
cm
rain 24hr
cm
rain mn
cm
humidity
%
barometer
mb
20260903004619 28 74 3.2 8.0 0.00 0.00 0.00 76 1010.3
20260903003108 28 70 3.2 12.9 0.00 0.00 0.00 75 1010.3
20260903001625 29 360 4.8 11.3 0.00 0.00 0.00 73 1010.1
20260903000100 30 67 4.8 16.1 0.00 0.00 0.00 71 1010.3
20260902234607 31 73 3.2 11.3 0.00 0.00 0.00 68 1010.4
20260902233102 32 69 1.6 11.3 0.00 0.00 0.00 66 1009.8
20260902231605 33 71 3.2 11.3 0.00 0.00 0.00 62 1010.1
20260902230104 35 73 3.2 11.3 0.00 0.00 0.00 56 1009.9
20260902224603 37 78 1.6 9.7 0.00 0.00 0.00 50 1009.8
20260902223106 37 0 0.0 3.2 0.00 0.00 0.00 44 1009.4
20260902221605 37 210 0.0 3.2 0.00 0.00 0.00 44 1009.3
20260902220059 37 211 0.0 3.2 0.00 0.00 0.00 42 1009.4
20260902214607 37 0 0.0 3.2 0.00 0.00 0.00 41 1009.3
20260902213109 37 191 0.0 3.2 0.00 0.00 0.00 43 1009.6
20260902211609 37 0 0.0 3.2 0.00 0.00 0.00 43 1009.7
20260902210059 38 192 0.0 4.8 0.00 0.00 0.00 41 1009.9
20260902204608 37 187 0.0 4.8 0.00 0.00 0.00 42 1009.9
20260902203101 37 0 0.0 4.8 0.00 0.00 0.00 43 1010.1
20260902201609 37 0 1.6 4.8 0.00 0.00 0.00 44 1010.2
20260902200059 37 0 0.0 4.8 0.00 0.00 0.00 44 1010.3
20260902194605 37 206 1.6 4.8 0.00 0.00 0.00 43 1010.6
20260902193105 38 216 0.0 6.4 0.00 0.00 0.00 42 1010.7
20260902191601 37 0 1.6 4.8 0.00 0.00 0.00 43 1011.4
20260902190100 36 0 0.0 4.8 0.00 0.00 0.00 46 1011.4
20260902184602 36 236 0.0 3.2 0.00 0.00 0.00 46 1011.8
20260902183105 36 0 0.0 4.8 0.00 0.00 0.00 48 1012.1
20260902181604 35 155 1.6 4.8 0.00 0.00 0.00 49 1012.2
20260902180104 36 0 1.6 4.8 0.00 0.00 0.00 49 1012.7
20260902174608 35 0 0.0 4.8 0.00 0.00 0.00 50 1013.1
20260902173104 35 246 1.6 4.8 0.00 0.00 0.00 52 1013.3
20260902171610 33 360 0.0 4.8 0.00 0.00 0.00 57 1013.6
20260902170107 32 0 0.0 3.2 0.00 0.00 0.00 60 1013.9
20260902164605 32 202 1.6 9.7 0.00 0.00 0.00 58 1013.9
20260902163101 33 0 0.0 6.4 0.00 0.00 0.00 60 1014.0
20260902161611 32 0 1.6 4.8 0.00 0.00 0.00 63 1013.9
20260902160122 31 82 1.6 8.0 0.00 0.00 0.00 66 1013.8
20260902154601 31 21 1.6 6.4 0.00 0.00 0.00 68 1013.9
20260902153102 30 163 0.0 6.4 0.00 0.00 0.00 71 1013.8
20260902151614 29 35 1.6 3.2 0.00 0.00 0.00 74 1014.0
20260902150104 28 0 0.0 3.2 0.00 0.00 0.00 76 1014.0
20260902144606 28 234 0.0 3.2 0.00 0.00 0.00 78 1013.8
20260902143108 27 205 0.0 3.2 0.00 0.00 0.00 80 1014.1
20260902141602 27 0 0.0 0.0 0.00 0.00 0.00 81 1014.1
20260902134601 26 0 0.0 1.6 0.00 0.00 0.00 82 1014.1
20260902133107 26 0 0.0 0.0 0.00 0.00 0.00 82 1014.2
20260902131605 26 0 0.0 1.6 0.00 0.00 0.00 82 1013.9
20260902124603 26 0 0.0 0.0 0.00 0.00 0.00 82 1013.3
20260902123111 26 0 0.0 0.0 0.00 0.00 0.00 82 1013.1
20260902121604 26 0 0.0 0.0 0.00 0.00 0.00 82 1013.1
20260902114603 26 0 0.0 0.0 0.00 0.00 0.00 80 1013.0
20260902113059 26 0 0.0 0.0 0.00 0.00 0.00 80 1012.8
20260902111606 26 0 0.0 0.0 0.00 0.00 0.00 80 1012.9
20260902110108 26 0 0.0 0.0 0.00 0.00 0.00 80 1013.0
20260902104609 26 0 0.0 0.0 0.00 0.00 0.00 81 1012.9
20260902103059 26 0 0.0 0.0 0.00 0.00 0.00 80 1013.1
20260902101600 26 0 0.0 0.0 0.00 0.00 0.00 80 1013.1
20260902100100 26 0 0.0 0.0 0.00 0.00 0.00 80 1013.1
20260902094601 26 0 0.0 0.0 0.00 0.00 0.00 79 1013.0
20260902093059 26 0 0.0 0.0 0.00 0.00 0.00 79 1012.9
20260902091603 26 0 0.0 0.0 0.00 0.00 0.00 79 1013.0
20260902090101 26 0 0.0 0.0 0.00 0.00 0.00 80 1012.8
20260902084604 26 0 0.0 0.0 0.00 0.00 0.00 80 1012.7
20260902083107 26 0 0.0 0.0 0.00 0.00 0.00 80 1012.6
20260902081603 26 0 0.0 0.0 0.00 0.00 0.00 80 1012.7
20260902080114 26 0 0.0 0.0 0.00 0.00 0.00 80 1012.8
20260902074602 26 0 0.0 0.0 0.00 0.00 0.00 81 1013.2
20260902073059 26 0 0.0 0.0 0.00 0.00 0.00 81 1013.2
20260902071603 26 0 0.0 0.0 0.00 0.00 0.00 80 1013.3
20260902070108 26 0 0.0 0.0 0.00 0.00 0.00 80 1013.3
20260902064603 26 0 0.0 0.0 0.00 0.00 0.00 80 1013.5
20260902063106 26 0 0.0 0.0 0.00 0.00 0.00 79 1013.2
20260902061614 26 0 0.0 0.0 0.00 0.00 0.00 79 1013.0
20260902060120 26 0 0.0 0.0 0.00 0.00 0.00 78 1013.3
20260902054559 26 0 0.0 0.0 0.00 0.00 0.00 78 1013.5
20260902053101 26 0 0.0 0.0 0.00 0.00 0.00 78 1013.4
20260902051602 26 0 0.0 0.0 0.00 0.00 0.00 77 1013.4
20260902050106 27 0 0.0 0.0 0.00 0.00 0.00 77 1013.2
20260902044602 27 0 0.0 0.0 0.00 0.00 0.00 76 1013.2
20260902043105 27 0 0.0 0.0 0.00 0.00 0.00 76 1013.3
20260902041603 27 0 0.0 0.0 0.00 0.00 0.00 76 1013.5
20260902040106 27 0 0.0 0.0 0.00 0.00 0.00 75 1013.4
20260902034605 27 0 0.0 0.0 0.00 0.00 0.00 75 1013.5
20260902033115 27 0 0.0 0.0 0.00 0.00 0.00 75 1013.5
20260902031601 27 0 0.0 0.0 0.00 0.00 0.00 74 1013.1
20260902024601 28 0 0.0 0.0 0.00 0.00 0.00 72 1013.0
20260902023110 28 0 0.0 0.0 0.00 0.00 0.00 72 1012.7
20260902021609 28 0 0.0 0.0 0.00 0.00 0.00 72 1012.5
20260902020105 28 0 0.0 3.2 0.00 0.00 0.00 71 1012.2
20260902014603 28 0 0.0 0.0 0.00 0.00 0.00 70 1012.3
20260902013059 29 0 0.0 4.8 0.00 0.00 0.00 70 1012.0
20260902011601 29 0 0.0 3.2 0.00 0.00 0.00 69 1011.9
20260902010101 30 86 0.0 8.0 0.00 0.00 0.00 67 1011.9